Location: Peach Mountain Observatory
(42.3967°N, 83.9367°W)
Time: 19:25:48
(UTC-05:00)

S-56A Canister/Altair - Pass Details

Date: 02 February 2020
Orbit: 633 x 2500 km, 38.9° (Epoch: 26 February)

Event Time Altitude Azimuth Distance (km) Brightness Sun altitude
Rises 19:09:50 0° 252° (WSW) 5,154 13.6 -14.9°
Reaches altitude 10° 19:13:44 10° 250° (WSW) 3,863 12.4 -15.6°
Maximum altitude 19:23:02 64° 173° (S) 1,288 8.6 -17.3°
Enters shadow 19:26:46 27° 100° (E) 1,825 8.9 -18.0°
Drops below altitude 10° 19:29:07 10° 93° (E) 2,584 - -18.4°
Sets 19:31:17 0° 89° (E) 3,362 - -18.8°
